Location: Oshawa
(43.9000°N, 78.8670°W)
Time: 20:27:41
(UTC-04:00)

Iridium 98 - Visible Passes

Search period start: 27 August 2016 00:00
Search period end: 06 September 2016 00:00
Orbit: 776 x 779 km, 86.4° (Epoch: 27 August)

Date Brightness Start Highest point End Pass type
(mag) Time Alt. Az. Time Alt. Az. Time Alt. Az.
27 Aug 7.6 01:13:36 10° NNW 01:15:49 20° NW 01:15:49 20° NW visible
27 Aug 7.4 22:59:35 10° NNE 23:01:51 19° NE 23:01:51 19° NE visible
28 Aug 7.2 00:39:35 10° NNW 00:42:19 29° NNW 00:42:19 29° NNW visible
28 Aug 7.8 22:27:32 10° NE 22:28:22 11° NE 22:28:22 11° NE visible
29 Aug 6.9 00:05:53 10° N 00:08:50 35° N 00:08:50 35° N visible
29 Aug 6.9 23:32:26 10° N 23:35:21 32° NNE 23:35:21 32° NNE visible
30 Aug 7.9 01:14:15 10° NW 01:15:49 15° NW 01:15:49 15° NW visible
30 Aug 7.2 22:59:16 10° NNE 23:01:53 24° NE 23:01:53 24° NE visible
31 Aug 7.5 00:39:56 10° NNW 00:42:20 23° NW 00:42:20 23° NW visible
31 Aug 7.5 22:26:34 10° NNE 22:28:24 16° NE 22:28:24 16° NE visible
01 Sep 7.1 00:06:03 10° N 00:08:52 32° NNW 00:08:52 32° NNW visible
01 Sep 6.9 23:32:27 10° N 23:35:24 34° N 23:35:24 34° N visible
02 Sep 8.2 01:15:18 10° NW 01:15:52 11° NW 01:15:52 11° NW visible
02 Sep 7.0 22:59:06 10° N 23:01:57 29° NNE 23:01:57 29° NNE visible
03 Sep 7.8 00:40:25 10° NNW 00:42:24 18° NW 00:42:24 18° NW visible
03 Sep 7.3 22:26:05 10° NNE 22:28:29 20° NE 22:28:29 20° NE visible
04 Sep 7.4 00:06:20 10° NNW 00:08:57 27° NW 00:08:57 27° NW visible
04 Sep 7.6 21:53:44 10° NE 21:55:02 13° NE 21:55:02 13° NE visible
04 Sep 7.0 23:32:34 10° N 23:35:30 34° NNW 23:35:30 34° NNW visible
05 Sep 6.8 22:59:03 10° N 23:02:03 34° NNE 23:02:03 34° NNE visible
